When you browse on this site, cookies collect data to enhance your experience and personalize the content and advertising you see.
Visit our Privacy Policy to learn more. By continuing to use the site, you agree to this use of cookies and data.
  • In Spain
  • List of Countries
  • For 7 days
  • Water Temperature
  • Weather Map
  • Weather Widgets
  • user-avatar
    Login

    Hourly Weather Tirana

    Today, 29 May, Friday

    Time Temperature Precipitation Wind Pressure Humidity
    00:00 +14°C° 0.1 mm 2 mps 755 mmHg 81%
    01:00 +14°C° 0.1 mm 2 mps 755 mmHg 81%
    02:00 +14°C° 0.3 mm 2 mps 755 mmHg 81%
    03:00 +14°C° 0.3 mm 2 mps 755 mmHg 81%
    04:00 +12°C° 0.3 mm 3 mps 755 mmHg 81%
    05:00 +14°C° 0.1 mm 3 mps 755 mmHg 75%
    06:00 +16°C° 0.1 mm 3 mps 755 mmHg 70%
    07:00 +18°C° 0.1 mm 3 mps 755 mmHg 64%
    08:00 +19°C° 0 mm 3 mps 755 mmHg 60%
    09:00 +20°C° 0 mm 2 mps 755 mmHg 55%
    10:00 +23°C° 0 mm 2 mps 755 mmHg 50%
    11:00 +23°C° 0.2 mm 2 mps 754 mmHg 49%
    12:00 +22°C° 0.2 mm 3 mps 754 mmHg 49%
    13:00 +24°C° 0.2 mm 3 mps 754 mmHg 48%
    14:00 +22°C° 0.2 mm 4 mps 753 mmHg 51%
    15:00 +22°C° 0.2 mm 4 mps 753 mmHg 53%
    16:00 +21°C° 0.2 mm 5 mps 753 mmHg 55%
    17:00 +20°C° 0 mm 4 mps 753 mmHg 61%
    18:00 +18°C° 0 mm 3 mps 753 mmHg 67%
    19:00 +16°C° 0 mm 3 mps 753 mmHg 73%
    20:00 +16°C° 0 mm 2 mps 754 mmHg 75%
    21:00 +15°C° 0 mm 1 mps 754 mmHg 78%
    22:00 +14°C° 0 mm 1 mps 754 mmHg 80%
    23:00 +14°C° 0 mm 1 mps 754 mmHg 81%

    Tomorrow, 30 May, Saturday

    Time Temperature Precipitation Wind Pressure Humidity
    00:00 +14°C° 0 mm 1 mps 754 mmHg 81%
    01:00 +13°C° 0 mm 1 mps 754 mmHg 82%
    02:00 +13°C° 0.1 mm 1 mps 754 mmHg 83%
    03:00 +13°C° 0.1 mm 2 mps 754 mmHg 83%
    04:00 +13°C° 0.1 mm 2 mps 754 mmHg 84%
    05:00 +15°C° 0 mm 2 mps 754 mmHg 78%
    06:00 +16°C° 0 mm 2 mps 754 mmHg 73%
    07:00 +18°C° 0 mm 2 mps 754 mmHg 67%
    08:00 +19°C° 0 mm 2 mps 754 mmHg 61%
    09:00 +20°C° 0 mm 3 mps 754 mmHg 55%
    10:00 +22°C° 0 mm 3 mps 753 mmHg 49%
    11:00 +22°C° 0 mm 3 mps 753 mmHg 49%
    12:00 +22°C° 0 mm 3 mps 753 mmHg 49%
    13:00 +22°C° 0 mm 4 mps 753 mmHg 48%
    14:00 +22°C° 0 mm 3 mps 753 mmHg 49%
    15:00 +21°C° 0 mm 3 mps 753 mmHg 51%
    16:00 +21°C° 0 mm 3 mps 753 mmHg 52%
    17:00 +19°C° 0 mm 2 mps 753 mmHg 60%
    18:00 +19°C° 0 mm 1 mps 753 mmHg 68%
    19:00 +16°C° 0 mm 1 mps 753 mmHg 75%
    20:00 +16°C° 0.1 mm 1 mps 753 mmHg 76%
    21:00 +15°C° 0.1 mm 1 mps 753 mmHg 76%
    22:00 +15°C° 0.1 mm 1 mps 754 mmHg 77%
    23:00 +15°C° 0.1 mm 1 mps 753 mmHg 76%

    Day after tomorrow, 31 May, Sunday

    Time Temperature Precipitation Wind Pressure Humidity
    00:00 +15°C° 0.1 mm 2 mps 753 mmHg 75%
    01:00 +15°C° 0.1 mm 2 mps 753 mmHg 73%
    02:00 +15°C° 0 mm 2 mps 753 mmHg 72%
    03:00 +15°C° 0 mm 1 mps 753 mmHg 70%
    04:00 +15°C° 0 mm 1 mps 753 mmHg 68%
    05:00 +15°C° 0.1 mm 1 mps 753 mmHg 68%
    06:00 +16°C° 0.1 mm 2 mps 753 mmHg 69%
    07:00 +16°C° 0.1 mm 2 mps 753 mmHg 69%
    08:00 +17°C° 0.1 mm 2 mps 753 mmHg 69%
    09:00 +17°C° 0.1 mm 2 mps 753 mmHg 69%
    10:00 +17°C° 0.1 mm 2 mps 753 mmHg 69%
    11:00 +19°C° 0.2 mm 2 mps 753 mmHg 64%
    12:00 +20°C° 0.2 mm 3 mps 752 mmHg 59%
    13:00 +22°C° 0.2 mm 3 mps 752 mmHg 55%
    14:00 +21°C° 0.1 mm 3 mps 752 mmHg 57%
    15:00 +21°C° 0.1 mm 4 mps 751 mmHg 60%
    16:00 +20°C° 0.1 mm 4 mps 751 mmHg 62%
    17:00 +19°C° 0 mm 3 mps 751 mmHg 68%
    18:00 +18°C° 0 mm 3 mps 751 mmHg 75%
    19:00 +16°C° 0 mm 2 mps 751 mmHg 81%
    20:00 +15°C° 0 mm 1 mps 752 mmHg 83%
    21:00 +15°C° 0 mm 1 mps 752 mmHg 85%
    22:00 +14°C° 0 mm 1 mps 752 mmHg 87%
    23:00 +14°C° 0 mm 1 mps 752 mmHg 87%

    1 June, Monday

    Time Temperature Precipitation Wind Pressure Humidity
    00:00 +14°C° 0 mm 1 mps 752 mmHg 87%
    01:00 +14°C° 0 mm 1 mps 751 mmHg 87%
    02:00 +14°C° 0.2 mm 1 mps 751 mmHg 87%
    03:00 +14°C° 0.2 mm 1 mps 751 mmHg 88%
    04:00 +14°C° 0.2 mm 2 mps 751 mmHg 88%
    05:00 +15°C° 0.4 mm 2 mps 751 mmHg 83%
    06:00 +16°C° 0.4 mm 2 mps 751 mmHg 78%
    07:00 +17°C° 0.4 mm 2 mps 751 mmHg 73%
    08:00 +17°C° 0.3 mm 2 mps 751 mmHg 71%
    09:00 +18°C° 0.3 mm 2 mps 751 mmHg 69%
    10:00 +18°C° 0.3 mm 2 mps 751 mmHg 68%
    11:00 +19°C° 0.1 mm 3 mps 751 mmHg 66%
    12:00 +19°C° 0.1 mm 3 mps 751 mmHg 64%
    13:00 +20°C° 0.1 mm 3 mps 751 mmHg 62%
    14:00 +20°C° 0.1 mm 3 mps 750 mmHg 61%
    15:00 +20°C° 0.1 mm 3 mps 750 mmHg 61%
    16:00 +20°C° 0.1 mm 3 mps 750 mmHg 60%
    17:00 +19°C° 0.2 mm 2 mps 750 mmHg 66%
    18:00 +18°C° 0.2 mm 2 mps 750 mmHg 73%
    19:00 +16°C° 0.2 mm 2 mps 750 mmHg 79%
    20:00 +16°C° 0.2 mm 2 mps 750 mmHg 81%
    21:00 +15°C° 0.2 mm 2 mps 751 mmHg 82%
    22:00 +15°C° 0.2 mm 1 mps 751 mmHg 84%
    23:00 +14°C° 0.1 mm 1 mps 751 mmHg 84%

    2 June, Tuesday

    Time Temperature Precipitation Wind Pressure Humidity
    00:00 +14°C° 0.1 mm 1 mps 751 mmHg 85%
    01:00 +14°C° 0.1 mm 1 mps 750 mmHg 85%
    02:00 +14°C° 0.1 mm 2 mps 750 mmHg 85%
    03:00 +13°C° 0.1 mm 2 mps 750 mmHg 85%
    04:00 +13°C° 0.1 mm 2 mps 750 mmHg 84%
    05:00 +15°C° 0 mm 2 mps 750 mmHg 79%
    06:00 +16°C° 0 mm 2 mps 750 mmHg 73%
    07:00 +19°C° 0 mm 1 mps 750 mmHg 68%
    08:00 +19°C° 0.1 mm 2 mps 750 mmHg 63%
    09:00 +20°C° 0.1 mm 2 mps 750 mmHg 59%
    10:00 +22°C° 0.1 mm 3 mps 750 mmHg 55%
    11:00 +22°C° 0.3 mm 3 mps 749 mmHg 54%
    12:00 +22°C° 0.3 mm 4 mps 749 mmHg 54%
    13:00 +23°C° 0.3 mm 5 mps 749 mmHg 54%
    14:00 +22°C° 0.2 mm 5 mps 749 mmHg 56%
    15:00 +22°C° 0.2 mm 5 mps 748 mmHg 58%
    16:00 +21°C° 0.2 mm 6 mps 748 mmHg 60%
    17:00 +20°C° 0.1 mm 5 mps 748 mmHg 67%
    18:00 +17°C° 0.1 mm 5 mps 748 mmHg 74%
    19:00 +17°C° 0.1 mm 4 mps 748 mmHg 81%
    20:00 +16°C° 0.1 mm 3 mps 749 mmHg 83%
    21:00 +16°C° 0.1 mm 3 mps 749 mmHg 86%
    22:00 +15°C° 0.1 mm 2 mps 749 mmHg 88%
    23:00 +15°C° 0.1 mm 2 mps 749 mmHg 88%

    3 June, Wednesday

    Time Temperature Precipitation Wind Pressure Humidity
    00:00 +14°C° 0.1 mm 2 mps 749 mmHg 88%
    01:00 +14°C° 0.1 mm 2 mps 748 mmHg 88%
    02:00 +14°C° 0 mm 2 mps 748 mmHg 87%
    03:00 +14°C° 0 mm 2 mps 748 mmHg 86%
    04:00 +13°C° 0 mm 3 mps 748 mmHg 85%
    05:00 +15°C° 0 mm 2 mps 748 mmHg 79%
    06:00 +17°C° 0 mm 2 mps 748 mmHg 72%
    07:00 +19°C° 0 mm 2 mps 748 mmHg 66%
    08:00 +20°C° 0 mm 2 mps 748 mmHg 60%
    09:00 +23°C° 0 mm 2 mps 749 mmHg 54%
    10:00 +25°C° 0 mm 2 mps 749 mmHg 49%
    11:00 +25°C° 0 mm 2 mps 748 mmHg 49%
    12:00 +25°C° 0 mm 3 mps 748 mmHg 49%
    13:00 +26°C° 0 mm 4 mps 748 mmHg 49%
    14:00 +25°C° 0.1 mm 5 mps 748 mmHg 52%
    15:00 +23°C° 0.1 mm 5 mps 748 mmHg 56%
    16:00 +23°C° 0.1 mm 5 mps 748 mmHg 59%
    17:00 +21°C° 0 mm 4 mps 748 mmHg 66%
    18:00 +19°C° 0 mm 3 mps 748 mmHg 72%
    19:00 +18°C° 0 mm 2 mps 748 mmHg 78%
    20:00 +17°C° 0 mm 2 mps 749 mmHg 79%
    21:00 +18°C° 0 mm 1 mps 749 mmHg 80%
    22:00 +16°C° 0 mm 1 mps 750 mmHg 81%
    23:00 +16°C° 0 mm 1 mps 750 mmHg 82%
    Show more